This demonstration page uses our WeatherBlox Daily Observations layout. Learn more.

Left ArrowRight Arrow

Hourly Observations for December 9, 2020

Temp ( °F °C ) Dew Point ( °F °C ) Humidity (%) Winds ( mph kmh ) Pressure ( in mb ) Visibility ( mi km ) Precip ( " mm )
12:15 am 00:15 Clear 46 7.8 14 -10.2 27 27 W 9 15 30.06 1018 10 16.0934 0 0
12:35 am 00:35 Clear 45 7.1 13 -10.5 28 28 WNW 8 13 30.07 1018 10 16.0934 0 0
12:55 am 00:55 Clear 43 5.9 13 -10.4 30 30 W 6 9 30.08 1019 10 16.0934 0 0
1:15 am 01:15 Clear 42 5.8 13 -10.4 30 30 WNW 6 9 30.07 1018 10 16.0934 0 0
1:35 am 01:35 Clear 42 5.4 13 -10.3 32 32 WNW 8 13 30.06 1018 10 16.0934 0 0
1:55 am 01:55 Clear 42 5.7 14 -10.2 31 31 WNW 8 13 30.06 1018 10 16.0934 0 0
2:15 am 02:15 Clear 42 5.5 14 -10.2 32 32 WNW 9 15 30.08 1019 10 16.0934 0 0
2:35 am 02:35 Clear 38 3.6 13 -10.3 36 36 WNW 6 9 30.1 1019 10 16.0934 0 0
2:55 am 02:55 Clear 40 4.7 14 -10 34 34 W 9 15 30.1 1019 10 16.0934 0 0
3:15 am 03:15 Clear 41 4.8 14 -10.1 33 33 W 8 13 30.1 1019 10 16.0934 0 0
3:35 am 03:35 Clear 41 4.9 13 -10.3 33 33 W 7 11 30.1 1019 10 16.0934 0 0
3:55 am 03:55 Clear 37 2.7 13 -10.3 38 38 WNW 9 15 30.12 1020 10 16.0934 0 0
4:15 am 04:15 Clear 36 2.3 14 -9.8 41 41 NW 9 15 30.12 1020 10 16.0934 0 0
4:35 am 04:35 Clear 37 2.8 15 -9.7 40 40 WNW 8 13 30.12 1020 10 16.0934 0 0
4:55 am 04:55 Clear 38 3.6 15 -9.4 38 38 NW 10 17 30.1 1019 10 16.0934 0 0
5:15 am 05:15 Clear 38 3.5 15 -9.2 39 39 NW 9 15 30.1 1019 10 16.0934 0 0
5:35 am 05:35 Clear 37 2.6 16 -8.9 43 43 NW 10 17 30.11 1020 10 16.0934 0 0
5:55 am 05:55 Clear 38 3.3 17 -8.5 42 42 NW 8 13 30.1 1019 10 16.0934 0 0
6:15 am 06:15 Clear 36 2.3 17 -8.3 46 46 NW 7 11 30.11 1020 10 16.0934 0 0
6:35 am 06:35 Clear 37 3 17 -8.3 44 44 WNW 6 9 30.12 1020 10 16.0934 0 0
6:55 am 06:55 Clear 37 2.9 17 -8.5 43 43 NW 8 13 30.12 1020 10 16.0934 0 0
7:15 am 07:15 Clear 36 2.1 17 -8.4 46 46 WNW 7 11 30.13 1020 10 16.0934 0 0
7:35 am 07:35 Clear 36 2.1 17 -8.5 46 46 WNW 8 13 30.14 1020 10 16.0934 0 0
7:55 am 07:55 Sunny 38 3.1 17 -8.3 43 43 WNW 9 15 30.14 1021 10 16.0934 0 0
8:15 am 08:15 Sunny 38 3.3 17 -8.1 43 43 W 7 11 30.13 1020 10 16.0934 0 0
8:35 am 08:35 Sunny 38 3.5 19 -7.5 45 45 WNW 8 13 30.13 1020 10 16.0934 0 0
8:55 am 08:55 Sunny 40 4.7 19 -7.4 42 42 WNW 8 13 30.12 1020 10 16.0934 0 0
9:15 am 09:15 Sunny 43 6.1 19 -7.1 39 39 WNW 6 9 30.11 1020 10 16.0934 0 0
9:35 am 09:35 Sunny 46 7.5 20 -6.5 37 37 WNW 6 9 30.1 1019 10 16.0934 0 0
9:55 am 09:55 Sunny 49 9.3 21 -6 34 34 W 6 9 30.08 1019 10 16.0934 0 0
10:15 am 10:15 Sunny 52 10.9 23 -5.1 32 32 NNW 6 9 30.07 1018 10 16.0934 0 0
10:35 am 10:35 Sunny 55 12.5 23 -5.1 29 29 NW 5 7 30.06 1018 10 16.0934 0 0
10:55 am 10:55 Sunny 56 13.5 23 -4.9 28 28 NW 6 9 30.05 1018 10 16.0934 0 0
11:15 am 11:15 Sunny 58 14.7 24 -4.5 26 26 NW 5 7 30.03 1017 10 16.0934 0 0
11:35 am 11:35 Sunny 60 15.6 24 -4.3 25 25 NW 5 7 30.02 1017 10 16.0934 0 0
11:55 am 11:55 Sunny 62 16.5 25 -4.1 24 24 NW 5 7 30.01 1016 10 16.0934 0 0
12:15 pm 12:15 Sunny 64 17.6 25 -3.8 23 23 WNW 5 7 29.99 1015 10 16.0934 0 0
12:35 pm 12:35 Sunny 64 18 25 -3.9 22 22 Calm 29.97 1015 10 16.0934 0 0
12:55 pm 12:55 Sunny 65 18.2 26 -3.6 23 23 Calm 29.95 1014 10 16.0934 0 0
1:15 pm 13:15 Sunny 66 19.1 26 -3.2 22 22 Calm 29.93 1014 10 16.0934 0 0
1:35 pm 13:35 Sunny 67 19.3 27 -2.7 23 23 Calm 29.92 1013 10 16.0934 0 0
1:55 pm 13:55 Sunny 67 19.3 27 -2.9 22 22 Calm 29.92 1013 10 16.0934 0 0
2:15 pm 14:15 Sunny 68 19.8 27 -2.6 22 22 S 3 6 29.91 1013 10 16.0934 0 0
2:35 pm 14:35 Sunny 68 20 28 -2.1 23 23 SW 6 9 29.91 1013 10 16.0934 0 0
2:55 pm 14:55 Sunny 68 20.1 28 -2.2 22 22 SSW 7 11 29.9 1012 10 16.0934 0 0
3:15 pm 15:15 Sunny 68 20 27 -2.8 21 21 SW 6 9 29.9 1012 10 16.0934 0 0
3:35 pm 15:35 Sunny 67 19.7 26 -3.1 21 21 SW 5 7 29.9 1013 10 16.0934 0 0
3:55 pm 15:55 Sunny 67 19.5 26 -3.3 21 21 SSW 5 7 29.89 1012 10 16.0934 0 0
4:15 pm 16:15 Sunny 66 19 26 -3.6 21 21 SSW 6 9 29.9 1012 10 16.0934 0 0
4:35 pm 16:35 Sunny 64 17.9 25 -3.7 23 23 SSW 5 7 29.9 1013 10 16.0934 0 0
4:55 pm 16:55 Sunny 63 17 25 -4 24 24 SSW 5 7 29.91 1013 10 16.0934 0 0
5:15 pm 17:15 Clear 60 15.6 24 -4.5 25 25 S 3 6 29.91 1013 10 16.0934 0 0
5:35 pm 17:35 Clear 58 14.3 24 -4.5 27 27 S 6 9 29.93 1013 10 16.0934 0 0
5:55 pm 17:55 Clear 55 12.8 24 -4.7 29 29 SSE 3 6 29.94 1014 10 16.0934 0 0
6:15 pm 18:15 Clear 52 10.9 23 -5 33 33 SE 3 6 29.95 1014 10 16.0934 0 0
6:35 pm 18:35 Clear 51 10.7 23 -4.9 33 33 SSE 5 7 29.96 1014 10 16.0934 0 0
6:55 pm 18:55 Clear 51 10.3 23 -4.8 35 35 S 5 7 29.95 1014 10 16.0934 0 0
7:15 pm 19:15 Clear 49 9.5 23 -5 36 36 S 5 7 29.97 1015 10 16.0934 0 0
7:35 pm 19:35 Clear 47 8.4 22 -5.3 38 38 SSE 6 9 29.98 1015 10 16.0934 0 0
7:55 pm 19:55 Clear 46 7.6 22 -5.8 38 38 S 5 7 29.97 1015 10 16.0934 0 0
8:15 pm 20:15 Clear 47 8.3 23 -5.2 38 38 S 7 11 29.97 1015 10 16.0934 0 0
8:35 pm 20:35 Clear 48 8.9 23 -4.8 38 38 S 7 11 29.96 1015 10 16.0934 0 0
8:55 pm 20:55 Clear 51 10.4 24 -4.5 35 35 S 8 13 29.94 1014 10 16.0934 0 0
9:15 pm 21:15 Clear 49 9.2 24 -4.7 37 37 S 8 13 29.94 1014 10 16.0934 0 0
9:35 pm 21:35 Clear 46 8 24 -4.2 42 42 S 8 13 29.95 1014 10 16.0934 0 0
9:55 pm 21:55 Clear 49 9.6 24 -4.2 38 38 S 10 17 29.94 1014 10 16.0934 0 0
10:15 pm 22:15 Clear 47 8.5 24 -4.2 41 41 S 12 19 29.95 1014 10 16.0934 0 0
10:35 pm 22:35 Clear 48 9.1 25 -3.9 40 40 S 9 15 29.93 1014 10 16.0934 0 0
10:55 pm 22:55 Clear 45 7.2 25 -4 45 45 S 5 7 29.95 1014 10 16.0934 0 0
11:15 pm 23:15 Clear 45 7.2 25 -3.7 46 46 S 9 15 29.95 1014 10 16.0934 0 0
11:35 pm 23:35 Clear 45 7.2 25 -3.7 46 46 S 6 9 29.94 1014 10 16.0934 0 0
11:55 pm 23:55 Clear 41 4.8 25 -4.1 53 53 S 6 9 29.95 1014 10 16.0934 0 0

Powered by AerisWeather